www.pogodaiklimat.ru
Время
(UTC), дата
13 22.05
14 22.05
15 22.05
16 22.05
17 22.05
18 22.05
19 22.05
20 22.05
21 22.05
22 22.05
23 22.05
00 23.05
03 23.05
06 23.05
09 23.05
12 23.05
15 23.05
18 23.05
21 23.05
00 24.05
03 24.05
06 24.05
09 24.05
12 24.05
15 24.05
18 24.05
21 24.05
00 25.05
03 25.05
06 25.05
09 25.05
12 25.05
15 25.05
18 25.05
21 25.05
00 26.05
03 26.05
06 26.05
09 26.05
12 26.05
15 26.05
18 26.05
21 26.05
00 27.05
03 27.05
06 27.05
09 27.05
12 27.05
15 27.05
18 27.05
21 27.05
00 28.05
03 28.05
05 28.05
06 28.05
08 28.05
09 28.05
10 28.05
11 28.05
12 28.05
13 28.05
14 28.05
15 28.05
17 28.05
18 28.05
19 28.05
20 28.05
23 28.05
00 29.05
02 29.05
03 29.05
04 29.05
05 29.05
06 29.05
08 29.05
07 29.05
09 29.05
10 29.05
11 29.05
12 29.05
14 29.05
13 29.05
Ветер
(напр.,м/с)
Видим. Явления Облачность Т
(С)
Тd
(С)
f
(%)
Тe
(С)
Тes
(С)
Комфортность P
(гПа)
Po
(гПа)
Тmin
(С)
Tmax
(С)
R
(мм)
R24
(мм)
S
(см)
ЮЗ 2 н/о н/о +18.5 +15.4 82 +20 +20 тепло 1012.8 1011.0
ЮЗ 1 н/о н/о +18.1 +15.2 83 +19 +19 тепло 1012.9 1011.1
Ю 1 н/о н/о +17.9 +14.8 82 +20 +20 тепло 1012.3 1010.5
ЮВ 1 н/о н/о +17.6 +14.9 84 +19 +19 по сезону 1012.1 1010.3
ЮЗ 2 н/о н/о +17.5 +14.8 84 +18 +18 по сезону 1012.4 1010.6
С 1 20 км 1/0
[Ci fib]
+17.0 +14.8 87 +18 +18 по сезону 1012.1 1010.3
ЮВ 1 н/о н/о +16.3 +14.3 88 +18 +18 по сезону 1012.2 1010.4
Ю 1 н/о н/о +16.7 +14.4 86 +18 +18 по сезону 1012.1 1010.3
ЮВ 1 20 км 1/0
[Ci fib]
+16.8 +14.5 86 +18 +18 по сезону 1012.4 1010.6
ЮВ 1 н/о н/о +17.9 +14.6 81 +20 +20 по сезону 1012.5 1010.7
ЮЗ 1 н/о н/о +19.6 +14.6 73 +23 +23 комфорт 1012.8 1011.0
С 3 20 км 8/0
[Ci sp]
+20.6 +16.0 75 +24 +32 комфорт 1012.9 1011.1 +16.1
С 4 20 км 9/1
[Cu hum Ci sp]
+23.6 +17.4 68 +27 +38 жарко 1011.8 1010.1
С 4 20 км 9/1
[Cu hum Cs]
+22.6 +17.1 71 +27 +34 душно 1011.4 1009.7
С 3 20 км 9/0
[Ci sp]
+20.8 +17.2 80 +25 +26 комфорт 1010.5 1008.8
СВ 1 15 км 9/0
[Ac trans Ci sp]
+19.9 +17.1 84 +24 +24 комфорт 1011.6 1009.8 +24.8
В 1 н/о н/о +19.6 +17.0 85 +23 +23 комфорт 1012.2 1010.4
ЮВ 1 20 км 5/5
[Sc]
+19.3 +17.3 88 +22 +22 комфорт 1011.9 1010.1
ЮВ 2 20 км 1/0
[Ci fib]
+19.1 +16.2 83 +21 +22 комфорт 1011.0 1009.2
СВ 1 25 км 1/1
[Cu hum]
+25.5 +16.9 59 +29 +41 душно 1010.9 1009.2 +18.2
С 5 20 км 1/1
[Cu med, cong]
+27.0 +16.6 53 +31 +42 душно 1010.4 1008.7
С 3 20 км 6/6
[Cu med, cong]
+26.0 +17.1 58 +30 +34 душно 1010.3 1008.6
С 4 20 км 6/6
[Cu Sc Ci fib]
+24.4 +16.9 63 +28 +29 душно 1010.9 1009.2
С 2 20 км 8/8
[Sc]
+22.8 +17.3 71 +28 +28 душно 1011.8 1010.1 +28.4
В 1 н/о н/о +21.4 +17.4 78 +25 +25 комфорт 1011.9 1010.2
З 2 20 км 8/3
[Sc Ci sp]
+21.3 +16.7 75 +25 +25 комфорт 1011.9 1010.2
ЮВ 2 20 км 9/1
[Cu hum Ac trans Ci sp]
+20.6 +16.2 76 +25 +25 комфорт 1012.0 1010.3
Ю 1 20 км 9/5
[Cu Sc Ci sp]
+23.4 +16.7 66 +28 +34 душно 1012.1 1010.4 +20.2
СЗ 3 20 км 10/5
[Cu med, cong Ac As]
+25.1 +18.1 65 +29 +32 душно 1011.4 1009.7
С 3 6000 м слаб. ливневой дождь 10/9
[Cu med, cong Ac As]
+23.7 +19.9 79 +29 +29 душно 1010.8 1009.1 0.0
С 2 8000 м дымка {ливн. осадки} 10/8
[Cu med, cong Ac As]
+23.0 +18.8 77 +29 +29 очень
душно
1010.9 1009.2
СВ 1 7000 м дымка {ливн. осадки} 10/6
[Cu med, cong Ac As]
+21.3 +19.1 87 +26 +26 душно 1011.5 1009.8 +26.8 0.0
ЮВ 1 н/о н/о +21.7 +19.3 86 +27 +27 душно 1010.4 1008.7
С 2 7000 м дымка 10/10
[Cu med, cong]
+21.5 +19.6 89 +27 +27 душно 1010.1 1008.4 0.0
СЗ 1 6000 м слаб. ливневой дождь 10/10
[Cu med, cong]
+20.7 +17.5 82 +26 +26 душно 1009.7 1008.0
С 2 7000 м в посл. час дождь {ливн. осадки} 10/1
[Cu hum Ac As]
+21.3 +18.3 83 +26 +29 душно 1009.7 1008.0 +20.6 0.0 0.0
СЗ 4 8000 м слаб. дождь 10/5
[Cu med, cong Ac As]
+21.7 +17.7 78 +26 +28 душно 1010.3 1008.6
СЗ 2 20 км слаб. дождь 10/3
[Cu Sc Ac As]
+21.0 +13.0 60 +24 +28 комфорт 1009.6 1007.9 0.0
ЮЗ 2 20 км в посл. час дождь 9/1
[Sc Ac As Ci sp]
+21.1 +12.3 57 +23 +24 комфорт 1008.6 1006.9
Ю 1 20 км {дождь} 9/3
[Cu Sc Ac trans]
+20.0 +11.5 58 +23 +23 комфорт 1009.3 1007.6 +22.2 0.0
ЮВ 2 н/о н/о +18.6 +14.1 75 +20 +20 тепло 1009.1 1007.3
ЮВ 1 20 км 8/0
[Ac trans Ci sp]
+17.2 +13.7 80 +18 +18 тепло 1008.6 1006.8
ЮВ 2 20 км 9/1
[Sc Ac trans Ci fib]
+17.1 +14.0 82 +18 +18 по сезону 1008.7 1006.9
З 3 8000 м мгла 8/3
[Cu med, cong Ac trans Ci fib]
+21.2 +15.5 70 +24 +29 комфорт 1009.1 1007.4 +16.8 0.0
С 4 8000 м мгла 8/0
[Ac trans Ci fib]
+23.1 +15.2 61 +27 +37 душно 1008.7 1007.0
С 6 8000 м мгла 9/0
[Ac trans Ci fib]
+23.3 +16.1 64 +28 +31 душно 1007.5 1005.8
С 5 8000 м мгла 9/1
[Cu hum Ac trans Ci fib]
+21.0 +16.4 75 +25 +25 комфорт 1007.7 1006.0
СЗ 1 10 км 9/0
[Ac trans Ci fib]
+20.1 +15.1 73 +24 +24 комфорт 1008.8 1007.1 +24.9
СЗ 2 н/о н/о +19.0 +16.1 83 +21 +21 комфорт 1009.2 1007.4
ЮЗ 1 15 км 6/0
[Ci fib]
+16.5 +13.2 81 +18 +18 тепло 1009.3 1007.5
ЮВ 1 20 км 3/0
[Ci fib]
+16.4 +12.2 76 +17 +18 тепло 1009.9 1008.1
В 1 20 км 1/0
[Ci fib]
+22.8 +11.2 48 +25 +38 комфорт 1010.2 1008.5 +15.7
С 4 20 км 1/1
[Cu hum Ci fib]
+25.0 +14.2 51 +27 +42 жарко 1010.0 1008.3
С 4 н/о н/о +25.4 +10.5 39 +26 +26 жарко 1009.2 1007.5
СЗ 3 20 км 6/1
[Cu hum Ac trans]
+26.8 +5.2 25 +26 +33 жарко 1009.1 1007.4
З 4 н/о н/о +24.8 +6.6 31 +25 +25 комфорт 1009.2 1007.5
СЗ 4 20 км 5/3
[Sc Ac trans Ci fib]
+24.0 +5.9 31 +24 +25 комфорт 1009.5 1007.8
СЗ 3 н/о н/о +22.8 +9.2 42 +24 +24 комфорт 1010.2 1008.5
З 2 н/о н/о +22.0 +9.5 45 +24 +24 комфорт 1010.5 1008.8
СВ 1 20 км 6/0
[Ac trans Ci fib]
+20.9 +11.3 54 +24 +24 комфорт 1011.2 1009.5 +27.5
ЮВ 2 н/о н/о +20.8 +9.7 49 +23 +23 комфорт 1011.5 1009.8
Ю 2 н/о н/о +20.2 +9.8 51 +22 +22 комфорт 1012.0 1010.2
ЮВ 2 н/о н/о +19.5 +9.7 53 +21 +21 комфорт 1012.2 1010.4
ЮВ 2 н/о н/о +18.4 +9.5 56 +19 +19 тепло 1012.5 1010.7
ЮВ 2 20 км 3/0
[Ac trans Ci fib]
+18.0 +9.9 59 +19 +19 тепло 1012.4 1010.6
ЮВ 2 н/о н/о +17.5 +9.9 61 +18 +18 тепло 1012.4 1010.6
Ю 2 н/о н/о +17.6 +9.5 59 +18 +18 тепло 1012.6 1010.8
СВ 1 н/о н/о +21.5 +14.4 64 +24 +24 комфорт 1014.0 1012.3
С 2 20 км 1/1
[Cu hum]
+22.6 +13.9 58 +26 +36 жарко 1013.9 1012.2 +16.8
С 4 н/о н/о +23.9 +15.4 59 +27 +27 жарко 1014.3 1012.6
С 6 15 км 1/1
[Cu med, cong Ci fib]
+24.6 +17.4 64 +29 +37 душно 1014.1 1012.4
С 6 н/о н/о +24.7 +16.4 60 +28 +28 душно 1014.1 1012.4
С 5 н/о н/о +24.4 +17.4 65 +28 +28 душно 1014.2 1012.5
С 6 15 км 9/1
[Cu hum Ci sp]
+24.3 +17.6 66 +28 +32 душно 1014.3 1012.6
С 5 н/о н/о +22.2 +16.5 70 +26 +26 душно 1014.3 1012.6
С 5 н/о н/о +23.4 +17.2 68 +29 +29 душно 1014.1 1012.4
С 4 20 км 4/0
[Ac trans Ci fib]
+21.8 +16.1 70 +26 +26 душно 1014.6 1012.9
СЗ 3 н/о н/о +21.1 +16.5 75 +25 +25 комфорт 1015.2 1013.4
СЗ 2 н/о н/о +20.4 +16.0 76 +24 +24 комфорт 1015.4 1013.6
З 1 20 км 9/0
[Ci fib]
+20.7 +16.3 76 +25 +25 комфорт 1016.2 1014.4 +25.2
З 1 н/о н/о +20.1 +13.8 67 +23 +23 комфорт 1017.0 1015.2
З 2 н/о н/о +20.2 +15.0 72 +23 +23 комфорт 1016.9 1015.1
Местоположение метеостанции Фукуока (Япония): широта 33.58 долгота 130.38 высота над уровнем моря 15 м.
В архиве по умолчанию представлена погода в Фукуоке за последнюю неделю. Архивные данные за месяц целиком и за предыдущие месяцы, начиная с января 2011 года, Вы можете получить, выбрав интересующий диапазон дат из раскрывающегося списка и нажав кнопку "Найти!".
*Определитесь, кто Вы:
Внимание! Время в таблицах - всемирное. Для получения местного времени необходимо прибавить поправку, которая равна 9 ч.
Смотрите также архив погоды в соседних городах и на ближайших метеорологических станциях:
Партнеры нашего сайта:      
Пояснения к столбцам:
  • Ветер - указаны скорость ветра в м/с - средняя за 10 мин, порывы в срок и между сроками (в фигурных скобках) и направление, откуда дует ветер: С - северный,
  • СВ - северо-восточный, В - восточный, ЮВ - юго-восточный, Ю - южный, ЮЗ - юго-западный, З - западный, СЗ - северо-западный.
  • Видимость - горизонтальная дальность видимости в метрах или километрах. При видимости от 1 до 10 км при отсутствии осадков обычно наблюдается дымка, при ухудшении видимости до 1 км и менее - туман. В сухую погоду видимость может ухудшаться дымом, пылью или мглою.
  • Явления - указаны атмосферные явления, наблюдавшиеся в срок или в последний час перед сроком; фигурными скобками обозначены явления, наблюдавшиеся между сроками (за 1-3 часа до срока); квадратными скобками обозначены град или гололедные отложения с указанием их диаметра в мм.
  • Облачность - указаны через наклонную черту общая и нижняя облачность в баллах и высота нижней границы облаков в метрах; квадратными скобками обозначены формы облаков: Ci - перистые, Cs - перисто-слоистые, Cc - перисто-кучевые, Ac - высококучевые, As - высокослоистые, Sc - слоисто-кучевые, Ns - слоисто-дождевые, Cu - кучевые, Cb - кучево-дождевые. Подробнее классификацию облаков см. в Атласе облаков (PDF).
  • T - Температура воздуха - температура, измеренная на высоте 2 м над землей.
  • Td - Температура точки росы - температура, при понижении до которой содержащийся в воздухе водяной пар достигнет насыщения.
  • f - Относительная влажность воздуха - влажноcть воздуха, измеренная на высоте 2 м над землей.
  • Te - Эффективная температура - температура, которую ощущает одетый по сезону человек в тени. Характеристика душности погоды. При расчете учитывается влияние влажности воздуха и скорости ветра на теплоощущения человека.
  • Tes - Эффективная температура на солнце - температура, которую ощущает человек, с поправкой на солнечный нагрев. Характеристика знойности погоды. Зависит от высоты солнца над горизонтом, облачности и скорости ветра. Ночью, в пасмурную погоду, а также при ветре 12 м/с и более поправка равна нулю.
  • P - Атмосферное давление - приведенное к уровню моря атмосферное давление.
  • Po - Атмосферное давление - измеренное на уровне метеостанции атмосферное давление.
  • Tmin - Минимальная температура - минимум температуры воздуха на высоте 2 м над землей.
  • Tmax - Максимальная температура - максимум температуры воздуха на высоте 2 м над землей.
  • R - Количество осадков - Количество выпавших осадков за период времени, мм. При наведении курсора мыши на число - период времени, за который выпало указанное количество осадков.
  • R24 - Количество осадков - Количество выпавших осадков за 24 часа, мм.
  • S - Снежный покров - Высота снежного покрова, см. При наведении курсора мыши на число - состояние снежного покрова и степень покрытия местности в баллах.